Index of /20260415/WXO-DD/model_rdps/10km/00/029
Name Last modified Size Description
Parent Directory -
20260415T00Z_MSC_RDPS_AbsoluteVorticity_IsbL-0250_RLatLon0.09_PT029H.grib2 2026-04-15 02:49 594K
20260415T00Z_MSC_RDPS_AbsoluteVorticity_IsbL-0500_RLatLon0.09_PT029H.grib2 2026-04-15 02:49 557K
20260415T00Z_MSC_RDPS_AbsoluteVorticity_IsbL-0700_RLatLon0.09_PT029H.grib2 2026-04-15 02:49 612K
20260415T00Z_MSC_RDPS_AbsoluteVorticity_IsbL-0850_RLatLon0.09_PT029H.grib2 2026-04-15 02:49 776K
20260415T00Z_MSC_RDPS_AirTemp_AGL-120m_RLatLon0.09_PT029H.grib2 2026-04-15 02:49 374K
20260415T00Z_MSC_RDPS_AirTemp_AGL-2m_RLatLon0.09_PT029H.grib2 2026-04-15 02:49 630K
20260415T00Z_MSC_RDPS_AirTemp_AGL-40m_RLatLon0.09_PT029H.grib2 2026-04-15 02:49 406K
20260415T00Z_MSC_RDPS_AirTemp_AGL-80m_RLatLon0.09_PT029H.grib2 2026-04-15 02:49 380K
20260415T00Z_MSC_RDPS_AirTemp_IsbL-0001_RLatLon0.09_PT029H.grib2 2026-04-15 02:49 293K
20260415T00Z_MSC_RDPS_AirTemp_IsbL-0005_RLatLon0.09_PT029H.grib2 2026-04-15 02:49 253K
20260415T00Z_MSC_RDPS_AirTemp_IsbL-0010_RLatLon0.09_PT029H.grib2 2026-04-15 02:49 338K
20260415T00Z_MSC_RDPS_AirTemp_IsbL-0020_RLatLon0.09_PT029H.grib2 2026-04-15 02:49 355K
20260415T00Z_MSC_RDPS_AirTemp_IsbL-0030_RLatLon0.09_PT029H.grib2 2026-04-15 02:49 379K
20260415T00Z_MSC_RDPS_AirTemp_IsbL-0050_RLatLon0.09_PT029H.grib2 2026-04-15 02:49 329K
20260415T00Z_MSC_RDPS_AirTemp_IsbL-0100_RLatLon0.09_PT029H.grib2 2026-04-15 02:49 391K
20260415T00Z_MSC_RDPS_AirTemp_IsbL-0150_RLatLon0.09_PT029H.grib2 2026-04-15 02:49 405K
20260415T00Z_MSC_RDPS_AirTemp_IsbL-0175_RLatLon0.09_PT029H.grib2 2026-04-15 02:49 401K
20260415T00Z_MSC_RDPS_AirTemp_IsbL-0200_RLatLon0.09_PT029H.grib2 2026-04-15 02:49 406K
20260415T00Z_MSC_RDPS_AirTemp_IsbL-0225_RLatLon0.09_PT029H.grib2 2026-04-15 02:49 408K
20260415T00Z_MSC_RDPS_AirTemp_IsbL-0250_RLatLon0.09_PT029H.grib2 2026-04-15 02:49 417K
20260415T00Z_MSC_RDPS_AirTemp_IsbL-0275_RLatLon0.09_PT029H.grib2 2026-04-15 02:49 402K
20260415T00Z_MSC_RDPS_AirTemp_IsbL-0300_RLatLon0.09_PT029H.grib2 2026-04-15 02:49 435K
20260415T00Z_MSC_RDPS_AirTemp_IsbL-0350_RLatLon0.09_PT029H.grib2 2026-04-15 02:49 418K
20260415T00Z_MSC_RDPS_AirTemp_IsbL-0400_RLatLon0.09_PT029H.grib2 2026-04-15 02:49 418K
20260415T00Z_MSC_RDPS_AirTemp_IsbL-0450_RLatLon0.09_PT029H.grib2 2026-04-15 02:49 394K
20260415T00Z_MSC_RDPS_AirTemp_IsbL-0500_RLatLon0.09_PT029H.grib2 2026-04-15 02:49 405K
20260415T00Z_MSC_RDPS_AirTemp_IsbL-0550_RLatLon0.09_PT029H.grib2 2026-04-15 02:49 424K
20260415T00Z_MSC_RDPS_AirTemp_IsbL-0600_RLatLon0.09_PT029H.grib2 2026-04-15 02:49 441K
20260415T00Z_MSC_RDPS_AirTemp_IsbL-0650_RLatLon0.09_PT029H.grib2 2026-04-15 02:49 351K
20260415T00Z_MSC_RDPS_AirTemp_IsbL-0700_RLatLon0.09_PT029H.grib2 2026-04-15 02:49 370K
20260415T00Z_MSC_RDPS_AirTemp_IsbL-0750_RLatLon0.09_PT029H.grib2 2026-04-15 02:49 405K
20260415T00Z_MSC_RDPS_AirTemp_IsbL-0800_RLatLon0.09_PT029H.grib2 2026-04-15 02:49 451K
20260415T00Z_MSC_RDPS_AirTemp_IsbL-0850_RLatLon0.09_PT029H.grib2 2026-04-15 02:49 495K
20260415T00Z_MSC_RDPS_AirTemp_IsbL-0875_RLatLon0.09_PT029H.grib2 2026-04-15 02:49 509K
20260415T00Z_MSC_RDPS_AirTemp_IsbL-0900_RLatLon0.09_PT029H.grib2 2026-04-15 02:49 520K
20260415T00Z_MSC_RDPS_AirTemp_IsbL-0925_RLatLon0.09_PT029H.grib2 2026-04-15 02:49 521K
20260415T00Z_MSC_RDPS_AirTemp_IsbL-0950_RLatLon0.09_PT029H.grib2 2026-04-15 02:49 520K
20260415T00Z_MSC_RDPS_AirTemp_IsbL-0970_RLatLon0.09_PT029H.grib2 2026-04-15 02:49 515K
20260415T00Z_MSC_RDPS_AirTemp_IsbL-0985_RLatLon0.09_PT029H.grib2 2026-04-15 02:49 515K
20260415T00Z_MSC_RDPS_AirTemp_IsbL-1000_RLatLon0.09_PT029H.grib2 2026-04-15 02:49 498K
20260415T00Z_MSC_RDPS_AirTemp_IsbL-1015_RLatLon0.09_PT029H.grib2 2026-04-15 02:49 498K
20260415T00Z_MSC_RDPS_Albedo_Sfc_RLatLon0.09_PT029H.grib2 2026-04-15 02:49 163K
20260415T00Z_MSC_RDPS_CAPE_Sfc_RLatLon0.09_PT029H.grib2 2026-04-15 02:49 1.7M
20260415T00Z_MSC_RDPS_CIN_Sfc_RLatLon0.09_PT029H.grib2 2026-04-15 02:49 1.2M
20260415T00Z_MSC_RDPS_CloudWater_EAtm_RLatLon0.09_PT029H.grib2 2026-04-15 02:49 209K
20260415T00Z_MSC_RDPS_ConvectivePrecip-Accum_Sfc_RLatLon0.09_PT029H.grib2 2026-04-15 02:49 919K
20260415T00Z_MSC_RDPS_DewPointDepression_AGL-2m_RLatLon0.09_PT029H.grib2 2026-04-15 02:49 381K
20260415T00Z_MSC_RDPS_DewPointDepression_IsbL-0001_RLatLon0.09_PT029H.grib2 2026-04-15 02:49 193
20260415T00Z_MSC_RDPS_DewPointDepression_IsbL-0005_RLatLon0.09_PT029H.grib2 2026-04-15 02:49 193
20260415T00Z_MSC_RDPS_DewPointDepression_IsbL-0010_RLatLon0.09_PT029H.grib2 2026-04-15 02:49 193
20260415T00Z_MSC_RDPS_DewPointDepression_IsbL-0020_RLatLon0.09_PT029H.grib2 2026-04-15 02:49 193
20260415T00Z_MSC_RDPS_DewPointDepression_IsbL-0030_RLatLon0.09_PT029H.grib2 2026-04-15 02:49 13K
20260415T00Z_MSC_RDPS_DewPointDepression_IsbL-0050_RLatLon0.09_PT029H.grib2 2026-04-15 02:49 105K
20260415T00Z_MSC_RDPS_DewPointDepression_IsbL-0100_RLatLon0.09_PT029H.grib2 2026-04-15 02:49 123K
20260415T00Z_MSC_RDPS_DewPointDepression_IsbL-0150_RLatLon0.09_PT029H.grib2 2026-04-15 02:49 143K
20260415T00Z_MSC_RDPS_DewPointDepression_IsbL-0175_RLatLon0.09_PT029H.grib2 2026-04-15 02:49 169K
20260415T00Z_MSC_RDPS_DewPointDepression_IsbL-0200_RLatLon0.09_PT029H.grib2 2026-04-15 02:49 202K
20260415T00Z_MSC_RDPS_DewPointDepression_IsbL-0225_RLatLon0.09_PT029H.grib2 2026-04-15 02:49 244K
20260415T00Z_MSC_RDPS_DewPointDepression_IsbL-0250_RLatLon0.09_PT029H.grib2 2026-04-15 02:49 292K
20260415T00Z_MSC_RDPS_DewPointDepression_IsbL-0275_RLatLon0.09_PT029H.grib2 2026-04-15 02:49 306K
20260415T00Z_MSC_RDPS_DewPointDepression_IsbL-0300_RLatLon0.09_PT029H.grib2 2026-04-15 02:49 322K
20260415T00Z_MSC_RDPS_DewPointDepression_IsbL-0350_RLatLon0.09_PT029H.grib2 2026-04-15 02:49 324K
20260415T00Z_MSC_RDPS_DewPointDepression_IsbL-0400_RLatLon0.09_PT029H.grib2 2026-04-15 02:49 334K
20260415T00Z_MSC_RDPS_DewPointDepression_IsbL-0450_RLatLon0.09_PT029H.grib2 2026-04-15 02:49 342K
20260415T00Z_MSC_RDPS_DewPointDepression_IsbL-0500_RLatLon0.09_PT029H.grib2 2026-04-15 02:49 348K
20260415T00Z_MSC_RDPS_DewPointDepression_IsbL-0550_RLatLon0.09_PT029H.grib2 2026-04-15 02:49 365K
20260415T00Z_MSC_RDPS_DewPointDepression_IsbL-0600_RLatLon0.09_PT029H.grib2 2026-04-15 02:49 378K
20260415T00Z_MSC_RDPS_DewPointDepression_IsbL-0650_RLatLon0.09_PT029H.grib2 2026-04-15 02:49 383K
20260415T00Z_MSC_RDPS_DewPointDepression_IsbL-0700_RLatLon0.09_PT029H.grib2 2026-04-15 02:49 392K
20260415T00Z_MSC_RDPS_DewPointDepression_IsbL-0750_RLatLon0.09_PT029H.grib2 2026-04-15 02:49 409K
20260415T00Z_MSC_RDPS_DewPointDepression_IsbL-0800_RLatLon0.09_PT029H.grib2 2026-04-15 02:49 438K
20260415T00Z_MSC_RDPS_DewPointDepression_IsbL-0850_RLatLon0.09_PT029H.grib2 2026-04-15 02:49 462K
20260415T00Z_MSC_RDPS_DewPointDepression_IsbL-0875_RLatLon0.09_PT029H.grib2 2026-04-15 02:49 462K
20260415T00Z_MSC_RDPS_DewPointDepression_IsbL-0900_RLatLon0.09_PT029H.grib2 2026-04-15 02:49 458K
20260415T00Z_MSC_RDPS_DewPointDepression_IsbL-0925_RLatLon0.09_PT029H.grib2 2026-04-15 02:49 446K
20260415T00Z_MSC_RDPS_DewPointDepression_IsbL-0950_RLatLon0.09_PT029H.grib2 2026-04-15 02:49 437K
20260415T00Z_MSC_RDPS_DewPointDepression_IsbL-0970_RLatLon0.09_PT029H.grib2 2026-04-15 02:49 427K
20260415T00Z_MSC_RDPS_DewPointDepression_IsbL-0985_RLatLon0.09_PT029H.grib2 2026-04-15 02:49 421K
20260415T00Z_MSC_RDPS_DewPointDepression_IsbL-1000_RLatLon0.09_PT029H.grib2 2026-04-15 02:49 417K
20260415T00Z_MSC_RDPS_DewPointDepression_IsbL-1015_RLatLon0.09_PT029H.grib2 2026-04-15 02:49 409K
20260415T00Z_MSC_RDPS_DewPoint_AGL-2m_RLatLon0.09_PT029H.grib2 2026-04-15 02:49 303K
20260415T00Z_MSC_RDPS_DownwardLongwaveRadiationFlux-Accum_Sfc_RLatLon0.09_PT029H.grib2 2026-04-15 02:49 466K
20260415T00Z_MSC_RDPS_DownwardShortwaveRadiationFlux-Accum_NTAtm_RLatLon0.09_PT029H.grib2 2026-04-15 02:49 109K
20260415T00Z_MSC_RDPS_DownwardShortwaveRadiationFlux-Accum_Sfc_RLatLon0.09_PT029H.grib2 2026-04-15 02:49 624K
20260415T00Z_MSC_RDPS_FreezingRain-Accum1h_Sfc_RLatLon0.09_PT029H.grib2 2026-04-15 02:49 40K
20260415T00Z_MSC_RDPS_FreezingRain-Accum_Sfc_RLatLon0.09_PT029H.grib2 2026-04-15 02:49 109K
20260415T00Z_MSC_RDPS_GeopotentialHeight_IsbL-0001_RLatLon0.09_PT029H.grib2 2026-04-15 02:49 207K
20260415T00Z_MSC_RDPS_GeopotentialHeight_IsbL-0005_RLatLon0.09_PT029H.grib2 2026-04-15 02:49 235K
20260415T00Z_MSC_RDPS_GeopotentialHeight_IsbL-0010_RLatLon0.09_PT029H.grib2 2026-04-15 02:49 307K
20260415T00Z_MSC_RDPS_GeopotentialHeight_IsbL-0020_RLatLon0.09_PT029H.grib2 2026-04-15 02:49 306K
20260415T00Z_MSC_RDPS_GeopotentialHeight_IsbL-0030_RLatLon0.09_PT029H.grib2 2026-04-15 02:49 309K
20260415T00Z_MSC_RDPS_GeopotentialHeight_IsbL-0050_RLatLon0.09_PT029H.grib2 2026-04-15 02:49 239K
20260415T00Z_MSC_RDPS_GeopotentialHeight_IsbL-0100_RLatLon0.09_PT029H.grib2 2026-04-15 02:49 222K
20260415T00Z_MSC_RDPS_GeopotentialHeight_IsbL-0150_RLatLon0.09_PT029H.grib2 2026-04-15 02:49 264K
20260415T00Z_MSC_RDPS_GeopotentialHeight_IsbL-0175_RLatLon0.09_PT029H.grib2 2026-04-15 02:49 264K
20260415T00Z_MSC_RDPS_GeopotentialHeight_IsbL-0200_RLatLon0.09_PT029H.grib2 2026-04-15 02:49 266K
20260415T00Z_MSC_RDPS_GeopotentialHeight_IsbL-0225_RLatLon0.09_PT029H.grib2 2026-04-15 02:49 267K
20260415T00Z_MSC_RDPS_GeopotentialHeight_IsbL-0250_RLatLon0.09_PT029H.grib2 2026-04-15 02:49 267K
20260415T00Z_MSC_RDPS_GeopotentialHeight_IsbL-0275_RLatLon0.09_PT029H.grib2 2026-04-15 02:49 266K
20260415T00Z_MSC_RDPS_GeopotentialHeight_IsbL-0300_RLatLon0.09_PT029H.grib2 2026-04-15 02:49 265K
20260415T00Z_MSC_RDPS_GeopotentialHeight_IsbL-0350_RLatLon0.09_PT029H.grib2 2026-04-15 02:49 261K
20260415T00Z_MSC_RDPS_GeopotentialHeight_IsbL-0400_RLatLon0.09_PT029H.grib2 2026-04-15 02:49 227K
20260415T00Z_MSC_RDPS_GeopotentialHeight_IsbL-0450_RLatLon0.09_PT029H.grib2 2026-04-15 02:49 223K
20260415T00Z_MSC_RDPS_GeopotentialHeight_IsbL-0500_RLatLon0.09_PT029H.grib2 2026-04-15 02:49 218K
20260415T00Z_MSC_RDPS_GeopotentialHeight_IsbL-0550_RLatLon0.09_PT029H.grib2 2026-04-15 02:49 283K
20260415T00Z_MSC_RDPS_GeopotentialHeight_IsbL-0600_RLatLon0.09_PT029H.grib2 2026-04-15 02:49 280K
20260415T00Z_MSC_RDPS_GeopotentialHeight_IsbL-0650_RLatLon0.09_PT029H.grib2 2026-04-15 02:49 278K
20260415T00Z_MSC_RDPS_GeopotentialHeight_IsbL-0700_RLatLon0.09_PT029H.grib2 2026-04-15 02:49 249K
20260415T00Z_MSC_RDPS_GeopotentialHeight_IsbL-0750_RLatLon0.09_PT029H.grib2 2026-04-15 02:49 252K
20260415T00Z_MSC_RDPS_GeopotentialHeight_IsbL-0800_RLatLon0.09_PT029H.grib2 2026-04-15 02:49 341K
20260415T00Z_MSC_RDPS_GeopotentialHeight_IsbL-0850_RLatLon0.09_PT029H.grib2 2026-04-15 02:49 351K
20260415T00Z_MSC_RDPS_GeopotentialHeight_IsbL-0875_RLatLon0.09_PT029H.grib2 2026-04-15 02:49 386K
20260415T00Z_MSC_RDPS_GeopotentialHeight_IsbL-0900_RLatLon0.09_PT029H.grib2 2026-04-15 02:49 390K
20260415T00Z_MSC_RDPS_GeopotentialHeight_IsbL-0925_RLatLon0.09_PT029H.grib2 2026-04-15 02:49 394K
20260415T00Z_MSC_RDPS_GeopotentialHeight_IsbL-0950_RLatLon0.09_PT029H.grib2 2026-04-15 02:49 397K
20260415T00Z_MSC_RDPS_GeopotentialHeight_IsbL-0970_RLatLon0.09_PT029H.grib2 2026-04-15 02:49 402K
20260415T00Z_MSC_RDPS_GeopotentialHeight_IsbL-0985_RLatLon0.09_PT029H.grib2 2026-04-15 02:49 410K
20260415T00Z_MSC_RDPS_GeopotentialHeight_IsbL-1000_RLatLon0.09_PT029H.grib2 2026-04-15 02:49 421K
20260415T00Z_MSC_RDPS_GeopotentialHeight_IsbL-1015_RLatLon0.09_PT029H.grib2 2026-04-15 02:49 435K
20260415T00Z_MSC_RDPS_Humidex_Sfc_RLatLon0.09_PT029H.grib2 2026-04-15 02:49 2.4M
20260415T00Z_MSC_RDPS_IcePellets-Accum1h_Sfc_RLatLon0.09_PT029H.grib2 2026-04-15 02:49 6.0K
20260415T00Z_MSC_RDPS_IcePellets-Accum_Sfc_RLatLon0.09_PT029H.grib2 2026-04-15 02:49 16K
20260415T00Z_MSC_RDPS_KIndex_Sfc_RLatLon0.09_PT029H.grib2 2026-04-15 02:49 2.5M
20260415T00Z_MSC_RDPS_LatentHeatNetFlux_Sfc_RLatLon0.09_PT029H.grib2 2026-04-15 02:49 380K
20260415T00Z_MSC_RDPS_LiftedIndex-MU-VT_IsbL-0500_RLatLon0.09_PT029H.grib2 2026-04-15 02:49 2.4M
20260415T00Z_MSC_RDPS_NetLongwaveRadiationFlux-Accum_Sfc_RLatLon0.09_PT029H.grib2 2026-04-15 02:49 601K
20260415T00Z_MSC_RDPS_NetShortwaveRadiationFlux-Accum_Sfc_RLatLon0.09_PT029H.grib2 2026-04-15 02:49 630K
20260415T00Z_MSC_RDPS_PlanetaryBoundaryLayerHeight_Sfc_RLatLon0.09_PT029H.grib2 2026-04-15 02:49 1.1M
20260415T00Z_MSC_RDPS_Precip-Accum1h_Sfc_RLatLon0.09_PT029H.grib2 2026-04-15 02:49 1.3M
20260415T00Z_MSC_RDPS_Precip-Accum_Sfc_RLatLon0.09_PT029H.grib2 2026-04-15 02:49 1.9M
20260415T00Z_MSC_RDPS_PrecipRate_Sfc_RLatLon0.09_PT029H.grib2 2026-04-15 02:49 171K
20260415T00Z_MSC_RDPS_PrecipType-Instant_Sfc_RLatLon0.09_PT029H.grib2 2026-04-15 02:49 565K
20260415T00Z_MSC_RDPS_Pressure-Trend3h_Sfc_RLatLon0.09_PT029H.grib2 2026-04-15 02:49 1.2M
20260415T00Z_MSC_RDPS_Pressure_MSL_RLatLon0.09_PT029H.grib2 2026-04-15 02:49 322K
20260415T00Z_MSC_RDPS_Pressure_PVU-1.5_RLatLon0.09_PT029H.grib2 2026-04-15 02:49 2.3M
20260415T00Z_MSC_RDPS_Pressure_PVU-1_RLatLon0.09_PT029H.grib2 2026-04-15 02:49 2.4M
20260415T00Z_MSC_RDPS_Pressure_PVU-2_RLatLon0.09_PT029H.grib2 2026-04-15 02:49 2.4M
20260415T00Z_MSC_RDPS_Pressure_Sfc_RLatLon0.09_PT029H.grib2 2026-04-15 02:49 498K
20260415T00Z_MSC_RDPS_RadiativeTemp_Sfc_RLatLon0.09_PT029H.grib2 2026-04-15 02:49 302K
20260415T00Z_MSC_RDPS_Rain-Accum1h_Sfc_RLatLon0.09_PT029H.grib2 2026-04-15 02:49 599K
20260415T00Z_MSC_RDPS_Rain-Accum_Sfc_RLatLon0.09_PT029H.grib2 2026-04-15 02:49 1.4M
20260415T00Z_MSC_RDPS_RelativeHumidity_AGL-2m_RLatLon0.09_PT029H.grib2 2026-04-15 02:49 1.0M
20260415T00Z_MSC_RDPS_RelativeHumidity_IsbL-0010_RLatLon0.09_PT029H.grib2 2026-04-15 02:49 512K
20260415T00Z_MSC_RDPS_RelativeHumidity_IsbL-0020_RLatLon0.09_PT029H.grib2 2026-04-15 02:49 401K
20260415T00Z_MSC_RDPS_RelativeHumidity_IsbL-0030_RLatLon0.09_PT029H.grib2 2026-04-15 02:49 363K
20260415T00Z_MSC_RDPS_RelativeHumidity_IsbL-0050_RLatLon0.09_PT029H.grib2 2026-04-15 02:49 391K
20260415T00Z_MSC_RDPS_RelativeHumidity_IsbL-0100_RLatLon0.09_PT029H.grib2 2026-04-15 02:49 260K
20260415T00Z_MSC_RDPS_RelativeHumidity_IsbL-0150_RLatLon0.09_PT029H.grib2 2026-04-15 02:49 383K
20260415T00Z_MSC_RDPS_RelativeHumidity_IsbL-0175_RLatLon0.09_PT029H.grib2 2026-04-15 02:49 452K
20260415T00Z_MSC_RDPS_RelativeHumidity_IsbL-0200_RLatLon0.09_PT029H.grib2 2026-04-15 02:49 520K
20260415T00Z_MSC_RDPS_RelativeHumidity_IsbL-0225_RLatLon0.09_PT029H.grib2 2026-04-15 02:49 587K
20260415T00Z_MSC_RDPS_RelativeHumidity_IsbL-0250_RLatLon0.09_PT029H.grib2 2026-04-15 02:49 663K
20260415T00Z_MSC_RDPS_RelativeHumidity_IsbL-0275_RLatLon0.09_PT029H.grib2 2026-04-15 02:49 700K
20260415T00Z_MSC_RDPS_RelativeHumidity_IsbL-0300_RLatLon0.09_PT029H.grib2 2026-04-15 02:49 751K
20260415T00Z_MSC_RDPS_RelativeHumidity_IsbL-0350_RLatLon0.09_PT029H.grib2 2026-04-15 02:49 768K
20260415T00Z_MSC_RDPS_RelativeHumidity_IsbL-0400_RLatLon0.09_PT029H.grib2 2026-04-15 02:49 778K
20260415T00Z_MSC_RDPS_RelativeHumidity_IsbL-0450_RLatLon0.09_PT029H.grib2 2026-04-15 02:49 789K
20260415T00Z_MSC_RDPS_RelativeHumidity_IsbL-0500_RLatLon0.09_PT029H.grib2 2026-04-15 02:49 811K
20260415T00Z_MSC_RDPS_RelativeHumidity_IsbL-0550_RLatLon0.09_PT029H.grib2 2026-04-15 02:49 836K
20260415T00Z_MSC_RDPS_RelativeHumidity_IsbL-0600_RLatLon0.09_PT029H.grib2 2026-04-15 02:49 849K
20260415T00Z_MSC_RDPS_RelativeHumidity_IsbL-0650_RLatLon0.09_PT029H.grib2 2026-04-15 02:49 858K
20260415T00Z_MSC_RDPS_RelativeHumidity_IsbL-0700_RLatLon0.09_PT029H.grib2 2026-04-15 02:49 888K
20260415T00Z_MSC_RDPS_RelativeHumidity_IsbL-0750_RLatLon0.09_PT029H.grib2 2026-04-15 02:49 930K
20260415T00Z_MSC_RDPS_RelativeHumidity_IsbL-0800_RLatLon0.09_PT029H.grib2 2026-04-15 02:49 1.0M
20260415T00Z_MSC_RDPS_RelativeHumidity_IsbL-0850_RLatLon0.09_PT029H.grib2 2026-04-15 02:49 1.0M
20260415T00Z_MSC_RDPS_RelativeHumidity_IsbL-0875_RLatLon0.09_PT029H.grib2 2026-04-15 02:49 1.0M
20260415T00Z_MSC_RDPS_RelativeHumidity_IsbL-0900_RLatLon0.09_PT029H.grib2 2026-04-15 02:49 1.1M
20260415T00Z_MSC_RDPS_RelativeHumidity_IsbL-0925_RLatLon0.09_PT029H.grib2 2026-04-15 02:49 1.1M
20260415T00Z_MSC_RDPS_RelativeHumidity_IsbL-0950_RLatLon0.09_PT029H.grib2 2026-04-15 02:49 1.1M
20260415T00Z_MSC_RDPS_RelativeHumidity_IsbL-0970_RLatLon0.09_PT029H.grib2 2026-04-15 02:49 1.0M
20260415T00Z_MSC_RDPS_RelativeHumidity_IsbL-0985_RLatLon0.09_PT029H.grib2 2026-04-15 02:49 1.0M
20260415T00Z_MSC_RDPS_RelativeHumidity_IsbL-1000_RLatLon0.09_PT029H.grib2 2026-04-15 02:49 1.0M
20260415T00Z_MSC_RDPS_RelativeHumidity_IsbL-1015_RLatLon0.09_PT029H.grib2 2026-04-15 02:49 1.0M
20260415T00Z_MSC_RDPS_Runoff-Accum_Sfc_RLatLon0.09_PT029H.grib2 2026-04-15 02:49 42K
20260415T00Z_MSC_RDPS_SWEATIndex_Sfc_RLatLon0.09_PT029H.grib2 2026-04-15 02:49 2.4M
20260415T00Z_MSC_RDPS_SeeingIndex_EAtm_RLatLon0.09_PT029H.grib2 2026-04-15 02:49 1.0M
20260415T00Z_MSC_RDPS_SensibleHeatNetFlux_Sfc_RLatLon0.09_PT029H.grib2 2026-04-15 02:49 283K
20260415T00Z_MSC_RDPS_ShowalterIndex_IsbL-0500_RLatLon0.09_PT029H.grib2 2026-04-15 02:49 2.6M
20260415T00Z_MSC_RDPS_SkyTransparencyIndex_EAtm_RLatLon0.09_PT029H.grib2 2026-04-15 02:49 705K
20260415T00Z_MSC_RDPS_Snow-Accum1h_Sfc_RLatLon0.09_PT029H.grib2 2026-04-15 02:49 498K
20260415T00Z_MSC_RDPS_Snow-Accum_Sfc_RLatLon0.09_PT029H.grib2 2026-04-15 02:49 732K
20260415T00Z_MSC_RDPS_SnowDensity_Sfc_RLatLon0.09_PT029H.grib2 2026-04-15 02:49 173K
20260415T00Z_MSC_RDPS_SnowDepth_Sfc_RLatLon0.09_PT029H.grib2 2026-04-15 02:49 725K
20260415T00Z_MSC_RDPS_SoilTemp_DBS-0to10cm_RLatLon0.09_PT029H.grib2 2026-04-15 02:49 226K
20260415T00Z_MSC_RDPS_SoilTemp_Sfc_RLatLon0.09_PT029H.grib2 2026-04-15 02:49 260K
20260415T00Z_MSC_RDPS_SoilVolumetricIceContent_Sfc_RLatLon0.09_PT029H.grib2 2026-04-15 02:49 175K
20260415T00Z_MSC_RDPS_SoilVolumetricWaterContent_DBS-0to10cm_RLatLon0.09_PT029H.grib2 2026-04-15 02:49 244K
20260415T00Z_MSC_RDPS_SoilVolumetricWaterContent_DBS-0to1cm_RLatLon0.09_PT029H.grib2 2026-04-15 02:49 335K
20260415T00Z_MSC_RDPS_SpecificHumidity_AGL-120m_RLatLon0.09_PT029H.grib2 2026-04-15 02:49 470K
20260415T00Z_MSC_RDPS_SpecificHumidity_AGL-2m_RLatLon0.09_PT029H.grib2 2026-04-15 02:49 628K
20260415T00Z_MSC_RDPS_SpecificHumidity_AGL-40m_RLatLon0.09_PT029H.grib2 2026-04-15 02:49 474K
20260415T00Z_MSC_RDPS_SpecificHumidity_AGL-80m_RLatLon0.09_PT029H.grib2 2026-04-15 02:49 471K
20260415T00Z_MSC_RDPS_SpecificHumidity_IsbL-0001_RLatLon0.09_PT029H.grib2 2026-04-15 02:49 296K
20260415T00Z_MSC_RDPS_SpecificHumidity_IsbL-0005_RLatLon0.09_PT029H.grib2 2026-04-15 02:49 345K
20260415T00Z_MSC_RDPS_SpecificHumidity_IsbL-0010_RLatLon0.09_PT029H.grib2 2026-04-15 02:49 377K
20260415T00Z_MSC_RDPS_SpecificHumidity_IsbL-0020_RLatLon0.09_PT029H.grib2 2026-04-15 02:49 383K
20260415T00Z_MSC_RDPS_SpecificHumidity_IsbL-0030_RLatLon0.09_PT029H.grib2 2026-04-15 02:49 443K
20260415T00Z_MSC_RDPS_SpecificHumidity_IsbL-0050_RLatLon0.09_PT029H.grib2 2026-04-15 02:49 499K
20260415T00Z_MSC_RDPS_SpecificHumidity_IsbL-0100_RLatLon0.09_PT029H.grib2 2026-04-15 02:49 386K
20260415T00Z_MSC_RDPS_SpecificHumidity_IsbL-0150_RLatLon0.09_PT029H.grib2 2026-04-15 02:49 545K
20260415T00Z_MSC_RDPS_SpecificHumidity_IsbL-0175_RLatLon0.09_PT029H.grib2 2026-04-15 02:49 416K
20260415T00Z_MSC_RDPS_SpecificHumidity_IsbL-0200_RLatLon0.09_PT029H.grib2 2026-04-15 02:49 424K
20260415T00Z_MSC_RDPS_SpecificHumidity_IsbL-0225_RLatLon0.09_PT029H.grib2 2026-04-15 02:49 427K
20260415T00Z_MSC_RDPS_SpecificHumidity_IsbL-0250_RLatLon0.09_PT029H.grib2 2026-04-15 02:49 534K
20260415T00Z_MSC_RDPS_SpecificHumidity_IsbL-0275_RLatLon0.09_PT029H.grib2 2026-04-15 02:49 455K
20260415T00Z_MSC_RDPS_SpecificHumidity_IsbL-0300_RLatLon0.09_PT029H.grib2 2026-04-15 02:49 555K
20260415T00Z_MSC_RDPS_SpecificHumidity_IsbL-0350_RLatLon0.09_PT029H.grib2 2026-04-15 02:49 519K
20260415T00Z_MSC_RDPS_SpecificHumidity_IsbL-0400_RLatLon0.09_PT029H.grib2 2026-04-15 02:49 496K
20260415T00Z_MSC_RDPS_SpecificHumidity_IsbL-0450_RLatLon0.09_PT029H.grib2 2026-04-15 02:49 552K
20260415T00Z_MSC_RDPS_SpecificHumidity_IsbL-0500_RLatLon0.09_PT029H.grib2 2026-04-15 02:49 492K
20260415T00Z_MSC_RDPS_SpecificHumidity_IsbL-0550_RLatLon0.09_PT029H.grib2 2026-04-15 02:49 572K
20260415T00Z_MSC_RDPS_SpecificHumidity_IsbL-0600_RLatLon0.09_PT029H.grib2 2026-04-15 02:49 626K
20260415T00Z_MSC_RDPS_SpecificHumidity_IsbL-0650_RLatLon0.09_PT029H.grib2 2026-04-15 02:49 540K
20260415T00Z_MSC_RDPS_SpecificHumidity_IsbL-0700_RLatLon0.09_PT029H.grib2 2026-04-15 02:49 581K
20260415T00Z_MSC_RDPS_SpecificHumidity_IsbL-0750_RLatLon0.09_PT029H.grib2 2026-04-15 02:49 635K
20260415T00Z_MSC_RDPS_SpecificHumidity_IsbL-0800_RLatLon0.09_PT029H.grib2 2026-04-15 02:49 705K
20260415T00Z_MSC_RDPS_SpecificHumidity_IsbL-0850_RLatLon0.09_PT029H.grib2 2026-04-15 02:49 779K
20260415T00Z_MSC_RDPS_SpecificHumidity_IsbL-0875_RLatLon0.09_PT029H.grib2 2026-04-15 02:49 800K
20260415T00Z_MSC_RDPS_SpecificHumidity_IsbL-0900_RLatLon0.09_PT029H.grib2 2026-04-15 02:49 817K
20260415T00Z_MSC_RDPS_SpecificHumidity_IsbL-0925_RLatLon0.09_PT029H.grib2 2026-04-15 02:49 821K
20260415T00Z_MSC_RDPS_SpecificHumidity_IsbL-0950_RLatLon0.09_PT029H.grib2 2026-04-15 02:49 823K
20260415T00Z_MSC_RDPS_SpecificHumidity_IsbL-0970_RLatLon0.09_PT029H.grib2 2026-04-15 02:49 813K
20260415T00Z_MSC_RDPS_SpecificHumidity_IsbL-0985_RLatLon0.09_PT029H.grib2 2026-04-15 02:49 663K
20260415T00Z_MSC_RDPS_SpecificHumidity_IsbL-1000_RLatLon0.09_PT029H.grib2 2026-04-15 02:49 653K
20260415T00Z_MSC_RDPS_SpecificHumidity_IsbL-1015_RLatLon0.09_PT029H.grib2 2026-04-15 02:49 643K
20260415T00Z_MSC_RDPS_SpecificHumidity_Sfc_RLatLon0.09_PT029H.grib2 2026-04-15 02:49 279K
20260415T00Z_MSC_RDPS_StormRelativeHelicity_EtaL-10000_RLatLon0.09_PT029H.grib2 2026-04-15 02:49 1.1M
20260415T00Z_MSC_RDPS_StormSeverityIndex_EtaL-10000_RLatLon0.09_PT029H.grib2 2026-04-15 02:49 1.2M
20260415T00Z_MSC_RDPS_Thickness_IsbL-0850to0700_RLatLon0.09_PT029H.grib2 2026-04-15 02:49 172K
20260415T00Z_MSC_RDPS_Thickness_IsbL-1000to0500_RLatLon0.09_PT029H.grib2 2026-04-15 02:49 195K
20260415T00Z_MSC_RDPS_Thickness_IsbL-1000to0850_RLatLon0.09_PT029H.grib2 2026-04-15 02:49 182K
20260415T00Z_MSC_RDPS_TotalCloudCover_Sfc_RLatLon0.09_PT029H.grib2 2026-04-15 02:49 664K
20260415T00Z_MSC_RDPS_TotalTotalsIndex_Sfc_RLatLon0.09_PT029H.grib2 2026-04-15 02:49 2.4M
20260415T00Z_MSC_RDPS_UVIndex-ClearSky_Sfc_RLatLon0.09_PT029H.grib2 2026-04-15 02:49 83K
20260415T00Z_MSC_RDPS_UVIndex_Sfc_RLatLon0.09_PT029H.grib2 2026-04-15 02:49 136K
20260415T00Z_MSC_RDPS_UpwardLongwaveRadiationFlux_NTAtm_RLatLon0.09_PT029H.grib2 2026-04-15 02:49 473K
20260415T00Z_MSC_RDPS_UpwardShortwaveRadiationFlux_NTAtm_RLatLon0.09_PT029H.grib2 2026-04-15 02:49 152K
20260415T00Z_MSC_RDPS_VerticalVelocity_IsbL-0250_RLatLon0.09_PT029H.grib2 2026-04-15 02:49 536K
20260415T00Z_MSC_RDPS_VerticalVelocity_IsbL-0500_RLatLon0.09_PT029H.grib2 2026-04-15 02:49 531K
20260415T00Z_MSC_RDPS_VerticalVelocity_IsbL-0700_RLatLon0.09_PT029H.grib2 2026-04-15 02:49 607K
20260415T00Z_MSC_RDPS_VerticalVelocity_IsbL-0850_RLatLon0.09_PT029H.grib2 2026-04-15 02:49 697K
20260415T00Z_MSC_RDPS_VerticalWindShear_EtaL-6500_RLatLon0.09_PT029H.grib2 2026-04-15 02:49 1.2M
20260415T00Z_MSC_RDPS_WindChill_Sfc_RLatLon0.09_PT029H.grib2 2026-04-15 02:49 1.1M
20260415T00Z_MSC_RDPS_WindDir_AGL-10m_RLatLon0.09_PT029H.grib2 2026-04-15 02:49 957K
20260415T00Z_MSC_RDPS_WindDir_AGL-120m_RLatLon0.09_PT029H.grib2 2026-04-15 02:49 583K
20260415T00Z_MSC_RDPS_WindDir_AGL-40m_RLatLon0.09_PT029H.grib2 2026-04-15 02:49 619K
20260415T00Z_MSC_RDPS_WindDir_AGL-80m_RLatLon0.09_PT029H.grib2 2026-04-15 02:49 596K
20260415T00Z_MSC_RDPS_WindDir_IsbL-0001_RLatLon0.09_PT029H.grib2 2026-04-15 02:49 245K
20260415T00Z_MSC_RDPS_WindDir_IsbL-0005_RLatLon0.09_PT029H.grib2 2026-04-15 02:49 339K
20260415T00Z_MSC_RDPS_WindDir_IsbL-0010_RLatLon0.09_PT029H.grib2 2026-04-15 02:49 351K
20260415T00Z_MSC_RDPS_WindDir_IsbL-0020_RLatLon0.09_PT029H.grib2 2026-04-15 02:49 372K
20260415T00Z_MSC_RDPS_WindDir_IsbL-0030_RLatLon0.09_PT029H.grib2 2026-04-15 02:49 373K
20260415T00Z_MSC_RDPS_WindDir_IsbL-0050_RLatLon0.09_PT029H.grib2 2026-04-15 02:49 397K
20260415T00Z_MSC_RDPS_WindDir_IsbL-0100_RLatLon0.09_PT029H.grib2 2026-04-15 02:49 387K
20260415T00Z_MSC_RDPS_WindDir_IsbL-0150_RLatLon0.09_PT029H.grib2 2026-04-15 02:49 378K
20260415T00Z_MSC_RDPS_WindDir_IsbL-0175_RLatLon0.09_PT029H.grib2 2026-04-15 02:49 400K
20260415T00Z_MSC_RDPS_WindDir_IsbL-0200_RLatLon0.09_PT029H.grib2 2026-04-15 02:49 414K
20260415T00Z_MSC_RDPS_WindDir_IsbL-0225_RLatLon0.09_PT029H.grib2 2026-04-15 02:49 420K
20260415T00Z_MSC_RDPS_WindDir_IsbL-0250_RLatLon0.09_PT029H.grib2 2026-04-15 02:49 428K
20260415T00Z_MSC_RDPS_WindDir_IsbL-0275_RLatLon0.09_PT029H.grib2 2026-04-15 02:49 454K
20260415T00Z_MSC_RDPS_WindDir_IsbL-0300_RLatLon0.09_PT029H.grib2 2026-04-15 02:49 456K
20260415T00Z_MSC_RDPS_WindDir_IsbL-0350_RLatLon0.09_PT029H.grib2 2026-04-15 02:49 483K
20260415T00Z_MSC_RDPS_WindDir_IsbL-0400_RLatLon0.09_PT029H.grib2 2026-04-15 02:49 503K
20260415T00Z_MSC_RDPS_WindDir_IsbL-0450_RLatLon0.09_PT029H.grib2 2026-04-15 02:49 528K
20260415T00Z_MSC_RDPS_WindDir_IsbL-0500_RLatLon0.09_PT029H.grib2 2026-04-15 02:49 546K
20260415T00Z_MSC_RDPS_WindDir_IsbL-0550_RLatLon0.09_PT029H.grib2 2026-04-15 02:49 567K
20260415T00Z_MSC_RDPS_WindDir_IsbL-0600_RLatLon0.09_PT029H.grib2 2026-04-15 02:49 595K
20260415T00Z_MSC_RDPS_WindDir_IsbL-0650_RLatLon0.09_PT029H.grib2 2026-04-15 02:49 639K
20260415T00Z_MSC_RDPS_WindDir_IsbL-0700_RLatLon0.09_PT029H.grib2 2026-04-15 02:49 678K
20260415T00Z_MSC_RDPS_WindDir_IsbL-0750_RLatLon0.09_PT029H.grib2 2026-04-15 02:49 720K
20260415T00Z_MSC_RDPS_WindDir_IsbL-0800_RLatLon0.09_PT029H.grib2 2026-04-15 02:49 781K
20260415T00Z_MSC_RDPS_WindDir_IsbL-0850_RLatLon0.09_PT029H.grib2 2026-04-15 02:49 843K
20260415T00Z_MSC_RDPS_WindDir_IsbL-0875_RLatLon0.09_PT029H.grib2 2026-04-15 02:49 867K
20260415T00Z_MSC_RDPS_WindDir_IsbL-0900_RLatLon0.09_PT029H.grib2 2026-04-15 02:49 884K
20260415T00Z_MSC_RDPS_WindDir_IsbL-0925_RLatLon0.09_PT029H.grib2 2026-04-15 02:49 897K
20260415T00Z_MSC_RDPS_WindDir_IsbL-0950_RLatLon0.09_PT029H.grib2 2026-04-15 02:49 901K
20260415T00Z_MSC_RDPS_WindDir_IsbL-0970_RLatLon0.09_PT029H.grib2 2026-04-15 02:49 907K
20260415T00Z_MSC_RDPS_WindDir_IsbL-0985_RLatLon0.09_PT029H.grib2 2026-04-15 02:49 916K
20260415T00Z_MSC_RDPS_WindDir_IsbL-1000_RLatLon0.09_PT029H.grib2 2026-04-15 02:49 930K
20260415T00Z_MSC_RDPS_WindDir_IsbL-1015_RLatLon0.09_PT029H.grib2 2026-04-15 02:49 947K
20260415T00Z_MSC_RDPS_WindGust-Max_AGL-10m_RLatLon0.09_PT029H.grib2 2026-04-15 02:49 1.0M
20260415T00Z_MSC_RDPS_WindGust-Min_AGL-10m_RLatLon0.09_PT029H.grib2 2026-04-15 02:49 973K
20260415T00Z_MSC_RDPS_WindGust_AGL-10m_RLatLon0.09_PT029H.grib2 2026-04-15 02:49 1.0M
20260415T00Z_MSC_RDPS_WindSpeed_AGL-10m_RLatLon0.09_PT029H.grib2 2026-04-15 02:49 839K
20260415T00Z_MSC_RDPS_WindSpeed_AGL-120m_RLatLon0.09_PT029H.grib2 2026-04-15 02:49 538K
20260415T00Z_MSC_RDPS_WindSpeed_AGL-40m_RLatLon0.09_PT029H.grib2 2026-04-15 02:49 671K
20260415T00Z_MSC_RDPS_WindSpeed_AGL-80m_RLatLon0.09_PT029H.grib2 2026-04-15 02:49 539K
20260415T00Z_MSC_RDPS_WindSpeed_IsbL-0001_RLatLon0.09_PT029H.grib2 2026-04-15 02:49 294K
20260415T00Z_MSC_RDPS_WindSpeed_IsbL-0005_RLatLon0.09_PT029H.grib2 2026-04-15 02:49 336K
20260415T00Z_MSC_RDPS_WindSpeed_IsbL-0010_RLatLon0.09_PT029H.grib2 2026-04-15 02:49 347K
20260415T00Z_MSC_RDPS_WindSpeed_IsbL-0020_RLatLon0.09_PT029H.grib2 2026-04-15 02:49 365K
20260415T00Z_MSC_RDPS_WindSpeed_IsbL-0030_RLatLon0.09_PT029H.grib2 2026-04-15 02:49 333K
20260415T00Z_MSC_RDPS_WindSpeed_IsbL-0050_RLatLon0.09_PT029H.grib2 2026-04-15 02:49 374K
20260415T00Z_MSC_RDPS_WindSpeed_IsbL-0100_RLatLon0.09_PT029H.grib2 2026-04-15 02:49 485K
20260415T00Z_MSC_RDPS_WindSpeed_IsbL-0150_RLatLon0.09_PT029H.grib2 2026-04-15 02:49 368K
20260415T00Z_MSC_RDPS_WindSpeed_IsbL-0175_RLatLon0.09_PT029H.grib2 2026-04-15 02:49 391K
20260415T00Z_MSC_RDPS_WindSpeed_IsbL-0200_RLatLon0.09_PT029H.grib2 2026-04-15 02:49 409K
20260415T00Z_MSC_RDPS_WindSpeed_IsbL-0225_RLatLon0.09_PT029H.grib2 2026-04-15 02:49 437K
20260415T00Z_MSC_RDPS_WindSpeed_IsbL-0250_RLatLon0.09_PT029H.grib2 2026-04-15 02:49 442K
20260415T00Z_MSC_RDPS_WindSpeed_IsbL-0275_RLatLon0.09_PT029H.grib2 2026-04-15 02:49 460K
20260415T00Z_MSC_RDPS_WindSpeed_IsbL-0300_RLatLon0.09_PT029H.grib2 2026-04-15 02:49 458K
20260415T00Z_MSC_RDPS_WindSpeed_IsbL-0350_RLatLon0.09_PT029H.grib2 2026-04-15 02:49 471K
20260415T00Z_MSC_RDPS_WindSpeed_IsbL-0400_RLatLon0.09_PT029H.grib2 2026-04-15 02:49 471K
20260415T00Z_MSC_RDPS_WindSpeed_IsbL-0450_RLatLon0.09_PT029H.grib2 2026-04-15 02:49 453K
20260415T00Z_MSC_RDPS_WindSpeed_IsbL-0500_RLatLon0.09_PT029H.grib2 2026-04-15 02:49 456K
20260415T00Z_MSC_RDPS_WindSpeed_IsbL-0550_RLatLon0.09_PT029H.grib2 2026-04-15 02:49 575K
20260415T00Z_MSC_RDPS_WindSpeed_IsbL-0600_RLatLon0.09_PT029H.grib2 2026-04-15 02:49 587K
20260415T00Z_MSC_RDPS_WindSpeed_IsbL-0650_RLatLon0.09_PT029H.grib2 2026-04-15 02:49 650K
20260415T00Z_MSC_RDPS_WindSpeed_IsbL-0700_RLatLon0.09_PT029H.grib2 2026-04-15 02:49 671K
20260415T00Z_MSC_RDPS_WindSpeed_IsbL-0750_RLatLon0.09_PT029H.grib2 2026-04-15 02:49 701K
20260415T00Z_MSC_RDPS_WindSpeed_IsbL-0800_RLatLon0.09_PT029H.grib2 2026-04-15 02:49 752K
20260415T00Z_MSC_RDPS_WindSpeed_IsbL-0850_RLatLon0.09_PT029H.grib2 2026-04-15 02:49 811K
20260415T00Z_MSC_RDPS_WindSpeed_IsbL-0875_RLatLon0.09_PT029H.grib2 2026-04-15 02:49 833K
20260415T00Z_MSC_RDPS_WindSpeed_IsbL-0900_RLatLon0.09_PT029H.grib2 2026-04-15 02:49 850K
20260415T00Z_MSC_RDPS_WindSpeed_IsbL-0925_RLatLon0.09_PT029H.grib2 2026-04-15 02:49 859K
20260415T00Z_MSC_RDPS_WindSpeed_IsbL-0950_RLatLon0.09_PT029H.grib2 2026-04-15 02:49 862K
20260415T00Z_MSC_RDPS_WindSpeed_IsbL-0970_RLatLon0.09_PT029H.grib2 2026-04-15 02:49 859K
20260415T00Z_MSC_RDPS_WindSpeed_IsbL-0985_RLatLon0.09_PT029H.grib2 2026-04-15 02:49 856K
20260415T00Z_MSC_RDPS_WindSpeed_IsbL-1000_RLatLon0.09_PT029H.grib2 2026-04-15 02:49 851K
20260415T00Z_MSC_RDPS_WindSpeed_IsbL-1015_RLatLon0.09_PT029H.grib2 2026-04-15 02:49 840K
20260415T00Z_MSC_RDPS_WindU_AGL-10m_RLatLon0.09_PT029H.grib2 2026-04-15 02:49 430K
20260415T00Z_MSC_RDPS_WindU_AGL-120m_RLatLon0.09_PT029H.grib2 2026-04-15 02:49 533K
20260415T00Z_MSC_RDPS_WindU_AGL-40m_RLatLon0.09_PT029H.grib2 2026-04-15 02:49 537K
20260415T00Z_MSC_RDPS_WindU_AGL-80m_RLatLon0.09_PT029H.grib2 2026-04-15 02:49 535K
20260415T00Z_MSC_RDPS_WindU_IsbL-0001_RLatLon0.09_PT029H.grib2 2026-04-15 02:49 263K
20260415T00Z_MSC_RDPS_WindU_IsbL-0005_RLatLon0.09_PT029H.grib2 2026-04-15 02:49 301K
20260415T00Z_MSC_RDPS_WindU_IsbL-0010_RLatLon0.09_PT029H.grib2 2026-04-15 02:49 311K
20260415T00Z_MSC_RDPS_WindU_IsbL-0020_RLatLon0.09_PT029H.grib2 2026-04-15 02:49 329K
20260415T00Z_MSC_RDPS_WindU_IsbL-0030_RLatLon0.09_PT029H.grib2 2026-04-15 02:49 258K
20260415T00Z_MSC_RDPS_WindU_IsbL-0050_RLatLon0.09_PT029H.grib2 2026-04-15 02:49 367K
20260415T00Z_MSC_RDPS_WindU_IsbL-0100_RLatLon0.09_PT029H.grib2 2026-04-15 02:49 343K
20260415T00Z_MSC_RDPS_WindU_IsbL-0150_RLatLon0.09_PT029H.grib2 2026-04-15 02:49 387K
20260415T00Z_MSC_RDPS_WindU_IsbL-0175_RLatLon0.09_PT029H.grib2 2026-04-15 02:49 408K
20260415T00Z_MSC_RDPS_WindU_IsbL-0200_RLatLon0.09_PT029H.grib2 2026-04-15 02:49 423K
20260415T00Z_MSC_RDPS_WindU_IsbL-0225_RLatLon0.09_PT029H.grib2 2026-04-15 02:49 333K
20260415T00Z_MSC_RDPS_WindU_IsbL-0250_RLatLon0.09_PT029H.grib2 2026-04-15 02:49 335K
20260415T00Z_MSC_RDPS_WindU_IsbL-0275_RLatLon0.09_PT029H.grib2 2026-04-15 02:49 350K
20260415T00Z_MSC_RDPS_WindU_IsbL-0300_RLatLon0.09_PT029H.grib2 2026-04-15 02:49 346K
20260415T00Z_MSC_RDPS_WindU_IsbL-0350_RLatLon0.09_PT029H.grib2 2026-04-15 02:49 355K
20260415T00Z_MSC_RDPS_WindU_IsbL-0400_RLatLon0.09_PT029H.grib2 2026-04-15 02:49 356K
20260415T00Z_MSC_RDPS_WindU_IsbL-0450_RLatLon0.09_PT029H.grib2 2026-04-15 02:49 460K
20260415T00Z_MSC_RDPS_WindU_IsbL-0500_RLatLon0.09_PT029H.grib2 2026-04-15 02:49 463K
20260415T00Z_MSC_RDPS_WindU_IsbL-0550_RLatLon0.09_PT029H.grib2 2026-04-15 02:49 466K
20260415T00Z_MSC_RDPS_WindU_IsbL-0600_RLatLon0.09_PT029H.grib2 2026-04-15 02:49 478K
20260415T00Z_MSC_RDPS_WindU_IsbL-0650_RLatLon0.09_PT029H.grib2 2026-04-15 02:49 479K
20260415T00Z_MSC_RDPS_WindU_IsbL-0700_RLatLon0.09_PT029H.grib2 2026-04-15 02:49 497K
20260415T00Z_MSC_RDPS_WindU_IsbL-0750_RLatLon0.09_PT029H.grib2 2026-04-15 02:49 524K
20260415T00Z_MSC_RDPS_WindU_IsbL-0800_RLatLon0.09_PT029H.grib2 2026-04-15 02:49 568K
20260415T00Z_MSC_RDPS_WindU_IsbL-0850_RLatLon0.09_PT029H.grib2 2026-04-15 02:49 619K
20260415T00Z_MSC_RDPS_WindU_IsbL-0875_RLatLon0.09_PT029H.grib2 2026-04-15 02:49 637K
20260415T00Z_MSC_RDPS_WindU_IsbL-0900_RLatLon0.09_PT029H.grib2 2026-04-15 02:49 651K
20260415T00Z_MSC_RDPS_WindU_IsbL-0925_RLatLon0.09_PT029H.grib2 2026-04-15 02:49 660K
20260415T00Z_MSC_RDPS_WindU_IsbL-0950_RLatLon0.09_PT029H.grib2 2026-04-15 02:49 659K
20260415T00Z_MSC_RDPS_WindU_IsbL-0970_RLatLon0.09_PT029H.grib2 2026-04-15 02:49 655K
20260415T00Z_MSC_RDPS_WindU_IsbL-0985_RLatLon0.09_PT029H.grib2 2026-04-15 02:49 792K
20260415T00Z_MSC_RDPS_WindU_IsbL-1000_RLatLon0.09_PT029H.grib2 2026-04-15 02:49 832K
20260415T00Z_MSC_RDPS_WindU_IsbL-1015_RLatLon0.09_PT029H.grib2 2026-04-15 02:49 824K
20260415T00Z_MSC_RDPS_WindV_AGL-10m_RLatLon0.09_PT029H.grib2 2026-04-15 02:49 430K
20260415T00Z_MSC_RDPS_WindV_AGL-120m_RLatLon0.09_PT029H.grib2 2026-04-15 02:49 533K
20260415T00Z_MSC_RDPS_WindV_AGL-40m_RLatLon0.09_PT029H.grib2 2026-04-15 02:49 537K
20260415T00Z_MSC_RDPS_WindV_AGL-80m_RLatLon0.09_PT029H.grib2 2026-04-15 02:49 534K
20260415T00Z_MSC_RDPS_WindV_IsbL-0001_RLatLon0.09_PT029H.grib2 2026-04-15 02:49 208K
20260415T00Z_MSC_RDPS_WindV_IsbL-0005_RLatLon0.09_PT029H.grib2 2026-04-15 02:49 236K
20260415T00Z_MSC_RDPS_WindV_IsbL-0010_RLatLon0.09_PT029H.grib2 2026-04-15 02:49 309K
20260415T00Z_MSC_RDPS_WindV_IsbL-0020_RLatLon0.09_PT029H.grib2 2026-04-15 02:49 358K
20260415T00Z_MSC_RDPS_WindV_IsbL-0030_RLatLon0.09_PT029H.grib2 2026-04-15 02:49 325K
20260415T00Z_MSC_RDPS_WindV_IsbL-0050_RLatLon0.09_PT029H.grib2 2026-04-15 02:49 366K
20260415T00Z_MSC_RDPS_WindV_IsbL-0100_RLatLon0.09_PT029H.grib2 2026-04-15 02:49 433K
20260415T00Z_MSC_RDPS_WindV_IsbL-0150_RLatLon0.09_PT029H.grib2 2026-04-15 02:49 385K
20260415T00Z_MSC_RDPS_WindV_IsbL-0175_RLatLon0.09_PT029H.grib2 2026-04-15 02:49 407K
20260415T00Z_MSC_RDPS_WindV_IsbL-0200_RLatLon0.09_PT029H.grib2 2026-04-15 02:49 422K
20260415T00Z_MSC_RDPS_WindV_IsbL-0225_RLatLon0.09_PT029H.grib2 2026-04-15 02:49 333K
20260415T00Z_MSC_RDPS_WindV_IsbL-0250_RLatLon0.09_PT029H.grib2 2026-04-15 02:49 335K
20260415T00Z_MSC_RDPS_WindV_IsbL-0275_RLatLon0.09_PT029H.grib2 2026-04-15 02:49 349K
20260415T00Z_MSC_RDPS_WindV_IsbL-0300_RLatLon0.09_PT029H.grib2 2026-04-15 02:49 346K
20260415T00Z_MSC_RDPS_WindV_IsbL-0350_RLatLon0.09_PT029H.grib2 2026-04-15 02:49 355K
20260415T00Z_MSC_RDPS_WindV_IsbL-0400_RLatLon0.09_PT029H.grib2 2026-04-15 02:49 457K
20260415T00Z_MSC_RDPS_WindV_IsbL-0450_RLatLon0.09_PT029H.grib2 2026-04-15 02:49 458K
20260415T00Z_MSC_RDPS_WindV_IsbL-0500_RLatLon0.09_PT029H.grib2 2026-04-15 02:49 461K
20260415T00Z_MSC_RDPS_WindV_IsbL-0550_RLatLon0.09_PT029H.grib2 2026-04-15 02:49 464K
20260415T00Z_MSC_RDPS_WindV_IsbL-0600_RLatLon0.09_PT029H.grib2 2026-04-15 02:49 474K
20260415T00Z_MSC_RDPS_WindV_IsbL-0650_RLatLon0.09_PT029H.grib2 2026-04-15 02:49 475K
20260415T00Z_MSC_RDPS_WindV_IsbL-0700_RLatLon0.09_PT029H.grib2 2026-04-15 02:49 493K
20260415T00Z_MSC_RDPS_WindV_IsbL-0750_RLatLon0.09_PT029H.grib2 2026-04-15 02:49 519K
20260415T00Z_MSC_RDPS_WindV_IsbL-0800_RLatLon0.09_PT029H.grib2 2026-04-15 02:49 563K
20260415T00Z_MSC_RDPS_WindV_IsbL-0850_RLatLon0.09_PT029H.grib2 2026-04-15 02:49 615K
20260415T00Z_MSC_RDPS_WindV_IsbL-0875_RLatLon0.09_PT029H.grib2 2026-04-15 02:49 634K
20260415T00Z_MSC_RDPS_WindV_IsbL-0900_RLatLon0.09_PT029H.grib2 2026-04-15 02:49 649K
20260415T00Z_MSC_RDPS_WindV_IsbL-0925_RLatLon0.09_PT029H.grib2 2026-04-15 02:49 657K
20260415T00Z_MSC_RDPS_WindV_IsbL-0950_RLatLon0.09_PT029H.grib2 2026-04-15 02:49 658K
20260415T00Z_MSC_RDPS_WindV_IsbL-0970_RLatLon0.09_PT029H.grib2 2026-04-15 02:49 795K
20260415T00Z_MSC_RDPS_WindV_IsbL-0985_RLatLon0.09_PT029H.grib2 2026-04-15 02:49 792K
20260415T00Z_MSC_RDPS_WindV_IsbL-1000_RLatLon0.09_PT029H.grib2 2026-04-15 02:49 833K
20260415T00Z_MSC_RDPS_WindV_IsbL-1015_RLatLon0.09_PT029H.grib2 2026-04-15 02:49 823K